Location: Washington
(38.8950°N, 77.0370°W)
Time: 10:31:14
(UTC-05:00)

IDEFIX/ARIANE 42P - Visible Passes

Search period start: 06 February 2016 00:00
Search period end: 16 February 2016 00:00
Orbit: 786 x 802 km, 98.2° (Epoch: 06 February)

Date Brightness Start Highest point End Pass type
(mag) Time Alt. Az. Time Alt. Az. Time Alt. Az.
06 Feb 4.8 06:35:02 10° NNE 06:39:44 32° E 06:44:21 10° SSE visible
06 Feb 5.0 19:32:42 10° SW 19:36:48 23° W 19:40:56 10° NW visible
07 Feb 5.7 06:07:48 10° NE 06:11:12 17° E 06:14:34 10° SE visible
07 Feb 3.9 19:03:23 10° S 19:08:20 42° W 19:13:20 10° NNW visible
08 Feb 2.7 18:34:44 10° S 18:39:58 79° WSW 18:45:16 10° NNW visible
09 Feb 2.7 18:06:37 10° SSE 18:11:44 56° ENE 18:16:54 10° N visible
09 Feb 5.5 19:48:25 10° SW 19:51:40 16° W 19:54:57 10° NW visible
10 Feb 5.3 06:21:51 10° NE 06:26:03 24° E 06:30:13 10° SSE visible
10 Feb 4.5 19:18:33 10° SSW 19:23:08 30° W 19:27:46 10° NW visible
11 Feb 6.0 05:55:16 10° ENE 05:57:28 13° E 05:59:40 10° ESE visible
11 Feb 3.3 18:49:34 10° S 18:54:43 57° W 18:59:55 10° NNW visible
12 Feb 2.5 18:21:10 10° SSE 18:26:24 79° ENE 18:31:42 10° N visible
12 Feb 5.9 20:04:55 10° WSW 20:06:34 11° W 20:08:14 10° WNW visible
13 Feb 5.1 19:33:57 10° SW 19:37:58 22° W 19:42:00 10° NW visible
14 Feb 5.7 06:08:50 10° NE 06:12:21 18° E 06:15:51 10° SE visible
14 Feb 4.0 19:04:34 10° SSW 19:09:29 40° W 19:14:27 10° NNW visible
15 Feb 2.8 18:35:52 10° S 18:41:07 76° WSW 18:46:25 10° NNW visible
